Location: Hurstbourne Priors
(51.2000°N, 1.3667°W)
Time: 22:12:18
(UTC+00:00)

Altair - Pass Details

Date: 15 April 2021
Orbit: 1501 x 1683 km, 47.2° (Epoch: 13 May)

Event Time Altitude Azimuth Distance (km) Brightness Sun altitude
Rises 11:10:23 0° 275° (W) 4,767 9.9 47.2°
Reaches altitude 10° 11:13:32 10° 273° (W) 3,757 9.5 47.4°
Maximum altitude 11:22:49 64° 195° (SSW) 1,666 9.3 47.8°
Drops below altitude 10° 11:31:50 10° 117° (ESE) 3,654 10.0 48.2°
Sets 11:34:51 0° 114° (ESE) 4,629 10.3 48.3°
